Location: Mannheim
(49.4880°N, 8.4650°E)
Time: 18:03:25
(UTC+01:00)

ISS - Pass Details

Date: 20 November 2023
Orbit: 416 x 417 km, 51.6° (Epoch: 30 November)

Event Time Altitude Azimuth Distance (km) Brightness Sun altitude
Rises 17:24:06 0° 211° (SSW) 2,351 1.0 -7.5°
Reaches altitude 10° 17:26:27 10° 196° (SSW) 1,492 -0.4 -7.9°
Maximum altitude 17:29:08 22° 142° (SE) 957 -2.1 -8.3°
Enters shadow 17:31:44 11° 90° (E) 1,470 -1.6 -8.7°
